QPF
0.00 0.00 0.00 0.00 0.00 0.00 0.00 0.01 0.03 0.06 0.06 0.02 0.00 0.01 0.01 0.02 0.03 0.05 0.01 0.01 0.00 0.00 0.00 0.00 0.00 0.00 0.00 0.00 0.01 0.03 0.03 0.06 0.06 0.11 0.03 0.00 0.00 0.00 0.00 0.00 0.00 0.00 0.00
0.00 0.00 0.00 0.00 0.01 0.01 0.01 0.00 0.00 0.00 0.00 0.01 0.02 0.04 0.06 0.10 0.13 0.08 0.09 0.12 0.05 0.03 0.01 0.01 0.00 0.00 0.00 0.00 0.00 0.02 0.02 0.03 0.01 0.02 0.01 0.00 0.00 0.00 0.00 0.00 0.00 0.00 0.00
0.00 0.00 0.00 0.00 0.00 0.00 0.03 0.02 0.00 0.01 0.00 0.01 0.02 0.03 0.12 0.17 0.17 0.18 0.24 0.31 0.38 0.25 0.32 0.23 0.14 0.10 0.02 0.00 0.01 0.01 0.06 0.03 0.02 0.00 0.00 0.00 0.00 0.00 0.00 0.00 0.00 0.00 0.00
0.00 0.00 0.00 0.00 0.00 0.00 0.00 0.00 0.00 0.00 0.00 0.00 0.02 0.03 0.05 0.11 0.06 0.20 0.13 0.18 0.24 0.27 0.26 0.33 0.34 0.26 0.16 0.14 0.11 0.11 0.14 0.06 0.01 0.00 0.00 0.00 0.00 0.00 0.00 0.00 0.00 0.00 0.00
0.00 0.00 0.00 0.00 0.00 0.00 0.00 0.00 0.00 0.00 0.00 0.00 0.00 0.00 0.02 0.03 0.00 0.08 0.07 0.08 0.11 0.05 0.08 0.09 0.17 0.26 0.19 0.14 0.15 0.13 0.13 0.10 0.04 0.00 0.00 0.00 0.00 0.00 0.00 0.00 0.00 0.00 0.00
0.00 0.00 0.00 0.00 0.00 0.00 0.00 0.00 0.00 0.00 0.01 0.04 0.02 0.01 0.00 0.00 0.01 0.01 0.11 0.04 0.05 0.05 0.02 0.10 0.17 0.18 0.20 0.21 0.18 0.18 0.13 0.10 0.02 0.00 0.00 0.00 0.00 0.00 0.00 0.00 0.00 0.00 0.00
0.00 0.00 0.00 0.00 0.00 0.00 0.00 0.00 0.00 0.00 0.01 0.07 0.05 0.00 0.01 0.00 0.00 0.02 0.14 0.07 0.05 0.09 0.10 0.29 0.32 0.37 0.38 0.26 0.24 0.25 0.16 0.07 0.03 0.00 0.00 0.00 0.00 0.00 0.00 0.00 0.00 0.00 0.00
0.00 0.00 0.00 0.00 0.00 0.00 0.00 0.00 0.00 0.00 0.00 0.00 0.00 0.00 0.01 0.00 0.00 0.02 0.08 0.16 0.15 0.11 0.06 0.07 0.08 0.20 0.43 0.44 0.44 0.31 0.21 0.05 0.01 0.01 0.07 0.08 0.01 0.00 0.00 0.00 0.00 0.00 0.00
0.00 0.00 0.00 0.00 0.00 0.00 0.00 0.00 0.00 0.00 0.00 0.00 0.00 0.00 0.00 0.01 0.00 0.04 0.10 0.09 0.06 0.14 0.17 0.39 0.31 0.18 0.25 0.40 0.58 0.65 0.32 0.07 0.12 0.08 0.08 0.19 0.08 0.00 0.00 0.00 0.00 0.00 0.00
0.00 0.00 0.00 0.00 0.00 0.00 0.00 0.01 0.02 0.02 0.03 0.05 0.01 0.00 0.01 0.01 0.02 0.02 0.04 0.08 0.12 0.18 0.19 0.48 1.01 0.87 0.35 0.33 0.37 0.67 0.51 0.21 0.27 0.19 0.12 0.15 0.16 0.11 0.04 0.00 0.00 0.00 0.00
0.00 0.00 0.00 0.00 0.00 0.00 0.00 0.01 0.02 0.08 0.21 0.16 0.04 0.09 0.12 0.10 0.11 0.13 0.04 0.04 0.12 0.21 0.30 0.31 0.62 0.98 1.02 0.42 0.39 0.45 0.59 0.52 0.39 0.24 0.20 0.12 0.12 0.13 0.10 0.04 0.00 0.00 0.00
0.00 0.00 0.00 0.00 0.00 0.00 0.00 0.00 0.04 0.09 0.14 0.06 0.01 0.02 0.05 0.06 0.08 0.10 0.10 0.05 0.06 0.07 0.07 0.12 0.20 0.42 1.27 0.99 0.46 0.32 0.31 0.32 0.36 0.18 0.05 0.02 0.04 0.09 0.08 0.04 0.01 0.00 0.00
0.01 0.00 0.00 0.00 0.00 0.00 0.00 0.00 0.00 0.03 0.11 0.07 0.01 0.00 0.00 0.00 0.01 0.03 0.05 0.06 0.07 0.01 0.00 0.02 0.03 0.03 0.16 0.41 0.42 0.23 0.29 0.25 0.16 0.12 0.05 0.03 0.09 0.09 0.08 0.05 0.02 0.00 0.00
0.00 0.00 0.00 0.00 0.00 0.00 0.00 0.01 0.00 0.00 0.01 0.01 0.00 0.00 0.00 0.00 0.00 0.01 0.01 0.01 0.01 0.01 0.01 0.00 0.01 0.01 0.00 0.01 0.00 0.01 0.03 0.06 0.06 0.07 0.06 0.07 0.07 0.05 0.04 0.03 0.02 0.01 0.00
0.00 0.00 0.00 0.00 0.00 0.01 0.00 0.01 0.00 0.00 0.00 0.00 0.00 0.00 0.00 0.00 0.04 0.12 0.09 0.09 0.10 0.04 0.02 0.01 0.00 0.00 0.00 0.00 0.00 0.00 0.00 0.01 0.02 0.02 0.03 0.04 0.02 0.02 0.03 0.01 0.00 0.00 0.00
0.00 0.00 0.00 0.00 0.00 0.01 0.04 0.01 0.00 0.00 0.00 0.00 0.00 0.00 0.00 0.00 0.00 0.03 0.06 0.13 0.37 0.40 0.12 0.07 0.03 0.00 0.00 0.00 0.00 0.00 0.00 0.00 0.00 0.00 0.01 0.01 0.02 0.02 0.02 0.01 0.00 0.00 0.00
0.00 0.00 0.00 0.00 0.00 0.02 0.01 0.00 0.00 0.00 0.00 0.00 0.00 0.00 0.00 0.00 0.00 0.00 0.00 0.00 0.02 0.13 0.24 0.14 0.06 0.02 0.03 0.02 0.01 0.00 0.00 0.00 0.00 0.00 0.00 0.00 0.01 0.00 0.00 0.00 0.00 0.00 0.00
0.00 0.02 0.02 0.02 0.03 0.01 0.01 0.00 0.00 0.00 0.00 0.00 0.00 0.00 0.00 0.00 0.00 0.00 0.00 0.00 0.00 0.00 0.08 0.19 0.08 0.02 0.01 0.01 0.00 0.00 0.00 0.00 0.00 0.00 0.00 0.00 0.00 0.00 0.00 0.00 0.00 0.01 0.01
0.01 0.06 0.09 0.02 0.02 0.02 0.01 0.00 0.00 0.00 0.00 0.00 0.00 0.00 0.00 0.00 0.00 0.00 0.00 0.00 0.00 0.00 0.00 0.00 0.00 0.00 0.00 0.00 0.00 0.00 0.00 0.00 0.00 0.00 0.00 0.00 0.00 0.00 0.01 0.00 0.00 0.00 0.00
0.01 0.07 0.17 0.11 0.05 0.01 0.00 0.01 0.00 0.00 0.00 0.00 0.00 0.00 0.00 0.00 0.00 0.00 0.00 0.00 0.00 0.00 0.00 0.00 0.00 0.00 0.00 0.00 0.00 0.00 0.00 0.00 0.00 0.00 0.00 0.00 0.00 0.00 0.00 0.00 0.00 0.00 0.00
0.02 0.02 0.05 0.07 0.03 0.00 0.00 0.00 0.00 0.00 0.00 0.00 0.00 0.01 0.00 0.00 0.00 0.00 0.00 0.00 0.00 0.00 0.00 0.00 0.00 0.00 0.00 0.00 0.00 0.00 0.00 0.00 0.00 0.00 0.00 0.00 0.00 0.00 0.00 0.00 0.00 0.00 0.00
0.03 0.03 0.01 0.00 0.01 0.01 0.00 0.00 0.00 0.00 0.00 0.00 0.00 0.00 0.00 0.00 0.00 0.00 0.00 0.00 0.00 0.00 0.00 0.00 0.00 0.00 0.00 0.00 0.00 0.00 0.00 0.00 0.00 0.00 0.00 0.00 0.00 0.00 0.00 0.00 0.00 0.00 0.00
0.01 0.02 0.00 0.00 0.00 0.00 0.00 0.00 0.00 0.00 0.00 0.00 0.00 0.00 0.00 0.00 0.00 0.00 0.00 0.00 0.00 0.00 0.00 0.00 0.00 0.00 0.00 0.00 0.00 0.00 0.00 0.00 0.00 0.00 0.00 0.00 0.00 0.00 0.00 0.00 0.00 0.00 0.00
0.00 0.00 0.00 0.00 0.00 0.00 0.00 0.00 0.00 0.00 0.00 0.00 0.00 0.00 0.00 0.00 0.00 0.00 0.00 0.00 0.00 0.00 0.00 0.00 0.00 0.00 0.00 0.00 0.00 0.00 0.00 0.00 0.00 0.00 0.00 0.00 0.00 0.00 0.00 0.00 0.00 0.00 0.00
0.00 0.00 0.00 0.00 0.00 0.00 0.01 0.00 0.00 0.00 0.00 0.00 0.00 0.01 0.01 0.01 0.00 0.00 0.00 0.00 0.01 0.01 0.00 0.00 0.00 0.00 0.00 0.00 0.00 0.00 0.00 0.00 0.00 0.00 0.00 0.00 0.00 0.00 0.00 0.00 0.00 0.00 0.00
0.01 0.01 0.00 0.00 0.00 0.00 0.00 0.00 0.00 0.00 0.00 0.00 0.00 0.00 0.00 0.00 0.00 0.00 0.00 0.02 0.01 0.00 0.00 0.00 0.00 0.00 0.00 0.00 0.00 0.00 0.00 0.00 0.00 0.00 0.00 0.00 0.00 0.00 0.00 0.00 0.00 0.00 0.00
MSLP
1011.64 1011.60 1011.86 1011.87 1011.74 1011.56 1011.41 1011.19 1011.04 1010.96 1010.81 1010.89 1010.80 1010.86 1010.96 1011.12 1011.06 1010.96 1011.23 1011.30 1011.64 1011.90 1012.27 1012.34 1012.37 1012.34 1012.50 1012.73 1013.16 1013.45 1014.04 1014.51 1014.40 1013.46 1013.35 1012.76 1012.67 1012.43 1012.13 1011.94 1011.85 1012.08 1012.08
1011.57 1011.40 1011.49 1011.55 1011.49 1011.44 1011.27 1010.93 1010.62 1010.44 1010.45 1010.35 1010.19 1010.13 1010.16 1010.40 1010.36 1010.25 1010.17 1010.21 1010.50 1010.79 1010.88 1011.20 1011.33 1011.60 1011.76 1011.96 1012.33 1012.64 1013.09 1013.33 1013.69 1013.22 1012.90 1012.69 1012.47 1011.95 1011.69 1011.68 1011.57 1011.42 1011.60
1011.61 1011.56 1011.55 1011.36 1011.22 1011.12 1010.87 1010.37 1010.21 1009.84 1009.77 1009.57 1009.54 1009.62 1009.53 1009.46 1009.59 1009.67 1009.61 1009.40 1009.47 1009.62 1009.85 1010.13 1010.50 1010.86 1011.06 1011.34 1011.72 1011.92 1012.25 1012.18 1012.61 1012.92 1012.73 1012.45 1012.07 1011.85 1011.58 1011.47 1011.37 1011.32 1011.21
1011.39 1011.29 1011.18 1011.07 1010.88 1010.60 1010.27 1009.98 1009.67 1009.35 1009.14 1008.95 1008.85 1008.81 1008.76 1008.73 1008.41 1008.32 1008.43 1008.55 1008.46 1008.74 1008.84 1009.13 1009.65 1010.05 1009.98 1010.76 1011.30 1011.62 1011.42 1011.41 1011.67 1012.18 1012.34 1012.36 1012.10 1011.48 1011.51 1011.58 1011.61 1011.24 1011.16
1011.07 1010.98 1010.87 1010.63 1010.33 1010.11 1009.82 1009.41 1009.05 1008.72 1008.40 1008.26 1008.13 1008.01 1007.90 1007.76 1007.45 1007.25 1007.10 1007.20 1007.28 1007.51 1007.74 1007.91 1007.79 1007.92 1008.50 1009.03 1010.24 1010.98 1011.13 1010.68 1010.84 1011.09 1011.29 1011.64 1011.51 1011.37 1011.17 1010.97 1011.16 1010.99 1010.97
1010.89 1010.67 1010.38 1010.18 1009.86 1009.67 1009.32 1008.88 1008.55 1008.18 1007.88 1007.63 1007.32 1007.24 1007.08 1006.70 1006.32 1006.19 1006.15 1006.09 1006.21 1006.18 1006.30 1006.42 1006.81 1007.13 1007.69 1008.13 1009.12 1009.52 1010.53 1010.44 1009.58 1009.90 1010.09 1010.37 1010.42 1010.41 1010.37 1010.50 1010.67 1010.96 1011.23
1010.33 1010.11 1009.87 1009.70 1009.51 1009.20 1008.85 1008.49 1008.16 1007.74 1007.29 1007.10 1006.85 1006.61 1006.28 1005.72 1005.41 1005.12 1005.15 1005.02 1004.78 1004.86 1005.02 1005.43 1005.81 1006.10 1006.71 1007.22 1007.74 1007.93 1008.90 1008.99 1008.14 1008.32 1008.63 1008.94 1009.34 1009.46 1009.77 1009.80 1009.95 1010.18 1010.37
1009.85 1009.62 1009.44 1009.22 1009.09 1008.75 1008.56 1008.13 1007.75 1007.34 1006.83 1006.42 1006.00 1005.66 1005.38 1004.86 1004.45 1004.33 1004.30 1004.08 1003.72 1003.53 1003.64 1004.10 1004.56 1004.76 1004.95 1005.74 1006.04 1006.99 1007.03 1007.42 1007.08 1007.25 1007.46 1007.53 1007.65 1008.19 1008.61 1008.52 1008.94 1009.31 1009.56
1009.16 1009.03 1008.96 1008.82 1008.64 1008.33 1008.10 1007.72 1007.26 1006.84 1006.23 1005.67 1005.15 1004.76 1004.49 1004.01 1003.66 1003.57 1003.62 1003.57 1003.15 1002.72 1002.76 1002.98 1003.15 1003.25 1002.36 1003.26 1005.27 1005.09 1006.16 1005.97 1005.59 1006.06 1006.38 1006.75 1007.16 1007.20 1007.71 1008.20 1008.77 1009.23 1009.33
1008.56 1008.51 1008.61 1008.56 1008.41 1008.09 1007.68 1007.22 1006.61 1006.10 1005.61 1004.97 1004.42 1004.05 1003.74 1003.33 1002.97 1002.80 1003.01 1003.16 1002.81 1002.51 1002.33 1002.68 1002.94 1002.52 1002.70 1002.58 1003.67 1004.47 1004.68 1003.45 1004.21 1005.25 1005.81 1006.15 1006.30 1006.64 1007.04 1007.46 1008.17 1008.70 1008.67
1008.39 1008.43 1008.30 1008.26 1008.20 1007.76 1007.33 1006.76 1006.23 1005.72 1005.28 1004.67 1004.15 1003.83 1003.52 1003.31 1002.95 1002.86 1002.84 1002.58 1002.59 1002.36 1002.09 1002.23 1001.39 1002.32 1002.14 1002.57 1002.41 1003.79 1003.42 1000.84 1003.25 1003.94 1004.95 1005.45 1006.01 1006.32 1006.80 1006.99 1007.22 1007.70 1008.11
1008.40 1008.38 1008.11 1008.03 1007.73 1007.25 1006.87 1006.34 1005.86 1005.53 1005.11 1004.62 1004.32 1003.95 1003.48 1003.23 1003.21 1002.99 1002.84 1002.58 1002.11 1002.02 1001.81 1001.24 1001.15 1001.40 1000.38 1000.40 1001.50 1000.92 1002.05 1002.04 1002.15 1003.35 1004.21 1004.87 1005.31 1005.79 1006.18 1006.67 1006.95 1007.27 1007.22
1008.39 1008.13 1007.87 1007.63 1007.31 1007.01 1006.69 1006.16 1005.80 1005.31 1005.24 1004.93 1004.69 1004.27 1003.82 1003.38 1003.04 1003.04 1002.68 1002.40 1002.32 1001.91 1001.39 1001.05 1001.15 1001.32 1000.91 1001.41 998.59 1000.75 1000.90 1001.47 1002.12 1003.22 1003.59 1004.08 1004.52 1004.93 1005.63 1006.39 1006.94 1007.06 1007.27
1008.36 1008.18 1007.94 1007.56 1007.05 1006.65 1006.09 1005.99 1005.73 1005.59 1005.54 1005.25 1004.83 1004.48 1003.98 1003.56 1003.32 1003.11 1002.91 1002.31 1002.11 1001.86 1001.76 1001.71 1001.45 1001.29 1001.02 1000.87 1000.90 1001.14 1001.49 1001.69 1002.05 1002.66 1003.24 1003.71 1004.26 1004.85 1005.43 1006.04 1006.78 1007.10 1007.39
1008.21 1008.10 1007.79 1007.35 1007.00 1006.49 1005.91 1005.65 1005.57 1005.42 1005.60 1005.52 1005.10 1004.88 1004.59 1004.27 1003.83 1003.50 1003.48 1002.81 1002.27 1001.69 1001.62 1001.38 1001.19 1001.27 1001.59 1001.73 1002.17 1002.16 1001.93 1002.04 1002.33 1002.79 1003.21 1003.71 1004.27 1004.76 1005.39 1005.93 1006.32 1006.87 1007.20
1008.09 1007.91 1007.53 1007.12 1006.79 1006.38 1006.03 1005.51 1005.39 1005.30 1005.25 1005.41 1005.30 1004.98 1004.41 1004.39 1004.01 1003.70 1003.40 1003.05 1002.47 1001.78 1001.53 1001.54 1001.57 1001.61 1001.68 1002.05 1002.26 1002.43 1002.39 1002.56 1002.75 1003.02 1003.46 1003.83 1004.27 1004.87 1005.37 1005.86 1006.15 1006.45 1007.02
1007.87 1007.59 1007.14 1006.68 1006.25 1006.06 1005.85 1005.59 1004.88 1004.58 1004.72 1004.91 1004.86 1004.63 1004.45 1003.90 1004.10 1004.15 1003.98 1003.26 1002.99 1002.07 1001.81 1002.01 1002.17 1002.24 1002.42 1002.63 1002.64 1002.66 1002.90 1003.00 1003.03 1003.26 1003.49 1003.93 1004.37 1004.79 1005.43 1005.91 1006.35 1006.62 1006.92
1007.22 1007.01 1006.64 1006.13 1005.83 1005.51 1005.06 1004.57 1004.17 1004.19 1004.19 1004.36 1004.25 1004.28 1004.25 1004.33 1004.32 1004.14 1003.86 1003.79 1003.53 1002.90 1002.62 1002.58 1002.49 1002.72 1002.95 1003.12 1003.05 1003.08 1003.14 1003.29 1003.38 1003.55 1003.84 1004.06 1004.44 1004.95 1005.49 1005.80 1006.15 1006.46 1006.78
1006.70 1006.44 1006.27 1005.79 1005.38 1004.84 1004.42 1003.96 1003.31 1003.25 1003.40 1003.66 1003.87 1003.99 1003.89 1004.03 1004.10 1004.15 1004.06 1003.62 1003.23 1002.88 1002.81 1002.96 1003.04 1003.05 1002.93 1003.48 1003.56 1003.22 1003.19 1003.45 1003.81 1003.99 1004.20 1004.46 1004.72 1005.09 1005.56 1005.84 1006.26 1006.59 1006.81
1006.18 1005.75 1005.67 1005.34 1004.75 1003.94 1003.75 1003.47 1003.09 1002.47 1002.64 1002.93 1003.17 1003.27 1003.57 1003.67 1003.82 1003.89 1003.67 1003.28 1003.02 1003.25 1003.50 1003.37 1003.39 1003.44 1003.59 1003.72 1003.63 1003.68 1003.77 1003.97 1004.31 1004.33 1004.61 1004.95 1005.04 1005.30 1005.70 1006.20 1006.51 1006.82 1007.00
1005.95 1005.31 1004.74 1004.39 1003.95 1003.33 1002.90 1003.16 1002.72 1002.18 1002.20 1002.50 1002.32 1002.53 1002.83 1003.16 1003.50 1003.55 1003.30 1003.02 1002.88 1002.90 1002.97 1002.96 1003.32 1003.50 1003.57 1003.74 1003.90 1004.10 1004.08 1004.34 1004.55 1004.97 1005.12 1005.33 1005.56 1005.81 1005.93 1006.22 1006.62 1006.89 1007.16
1005.81 1005.24 1004.54 1003.78 1003.10 1002.75 1002.33 1002.78 1002.18 1001.88 1002.00 1002.26 1002.21 1002.25 1002.54 1002.86 1003.08 1002.95 1002.92 1002.66 1002.48 1002.76 1002.80 1002.78 1003.08 1003.31 1003.58 1003.87 1004.02 1004.21 1004.42 1004.71 1005.01 1005.10 1005.30 1005.61 1005.89 1006.01 1006.24 1006.53 1006.83 1007.16 1007.40
1006.10 1005.69 1005.07 1004.06 1003.05 1002.91 1002.81 1002.39 1002.26 1002.02 1001.84 1001.83 1001.94 1002.15 1002.35 1002.51 1002.58 1002.50 1002.37 1002.24 1002.31 1002.41 1002.73 1002.97 1003.04 1003.17 1003.34 1003.80 1004.07 1004.04 1004.14 1004.29 1004.38 1004.62 1004.99 1005.44 1005.72 1005.88 1006.07 1006.34 1006.60 1007.08 1007.45
1006.58 1006.19 1005.59 1004.37 1003.85 1003.71 1003.41 1003.01 1002.89 1002.76 1002.57 1002.12 1002.15 1002.01 1002.22 1002.28 1002.25 1002.08 1001.94 1001.78 1002.15 1002.30 1002.77 1002.79 1002.76 1002.78 1003.07 1003.33 1003.43 1003.46 1003.67 1004.00 1004.06 1004.48 1004.44 1004.93 1005.47 1005.76 1006.04 1006.33 1006.55 1006.73 1007.03
1007.13 1006.70 1006.23 1005.68 1005.30 1005.05 1004.29 1003.94 1003.99 1003.91 1003.52 1003.34 1003.09 1003.05 1002.84 1002.89 1002.81 1002.22 1002.08 1001.69 1001.79 1001.97 1002.21 1002.58 1002.64 1002.57 1002.68 1002.80 1002.99 1003.21 1003.54 1003.51 1003.98 1004.27 1004.34 1004.65 1005.06 1005.44 1005.77 1006.06 1006.28 1006.43 1006.63
1008.04 1007.50 1007.52 1006.66 1006.97 1006.59 1006.04 1006.12 1005.93 1005.42 1005.53 1005.10 1004.96 1004.72 1004.21 1004.64 1004.15 1003.37 1002.85 1003.13 1003.27 1003.36 1003.50 1003.60 1003.61 1003.34 1003.16 1003.00 1002.89 1003.26 1003.61 1003.73 1003.80 1003.80 1004.06 1004.48 1004.91 1005.39 1005.62 1005.74 1005.85 1005.88 1006.02
Thickness
5763 5762 5756 5753 5750 5748 5745 5745 5745 5744 5745 5745 5747 5748 5748 5748 5752 5755 5755 5759 5759 5759 5760 5762 5764 5768 5767 5764 5760 5756 5746 5737 5735 5749 5753 5762 5763 5767 5771 5774 5777 5776 5776
5751 5750 5746 5744 5742 5738 5734 5735 5735 5735 5734 5735 5737 5739 5740 5738 5741 5746 5750 5754 5757 5758 5762 5762 5766 5765 5766 5764 5760 5757 5752 5745 5737 5741 5751 5755 5762 5768 5773 5774 5777 5778 5777
5738 5735 5731 5730 5729 5727 5725 5726 5724 5725 5725 5727 5727 5727 5730 5731 5732 5736 5742 5748 5751 5757 5759 5761 5763 5762 5765 5764 5757 5755 5754 5754 5748 5741 5748 5755 5761 5766 5770 5772 5775 5776 5776
5731 5726 5722 5718 5717 5716 5716 5714 5715 5715 5716 5717 5717 5717 5720 5723 5730 5736 5740 5742 5750 5751 5755 5758 5758 5758 5762 5760 5759 5750 5750 5752 5754 5747 5746 5748 5753 5764 5766 5764 5764 5769 5769
5719 5714 5710 5708 5707 5705 5704 5704 5705 5707 5708 5709 5708 5709 5713 5717 5725 5730 5737 5739 5744 5748 5746 5754 5756 5763 5763 5762 5759 5752 5745 5749 5752 5752 5750 5748 5750 5756 5760 5764 5762 5764 5765
5705 5701 5699 5697 5695 5693 5693 5695 5696 5697 5698 5700 5702 5703 5705 5713 5721 5726 5731 5734 5742 5748 5750 5755 5758 5759 5757 5755 5756 5757 5750 5742 5753 5755 5755 5752 5754 5757 5760 5762 5761 5756 5750
5696 5693 5689 5686 5684 5684 5684 5685 5685 5687 5690 5691 5692 5695 5700 5710 5716 5722 5725 5731 5741 5747 5750 5751 5750 5756 5753 5753 5751 5757 5753 5753 5760 5762 5761 5759 5757 5760 5760 5759 5760 5759 5754
5686 5683 5680 5677 5674 5673 5674 5676 5676 5678 5682 5683 5687 5690 5696 5705 5711 5716 5720 5728 5737 5744 5749 5749 5748 5751 5752 5752 5752 5750 5754 5755 5760 5763 5767 5768 5771 5768 5766 5766 5763 5761 5759
5678 5674 5671 5668 5665 5665 5666 5667 5669 5669 5673 5676 5682 5686 5691 5699 5705 5709 5714 5720 5730 5740 5745 5745 5747 5749 5758 5756 5741 5748 5744 5754 5763 5763 5768 5769 5767 5769 5765 5761 5753 5750 5748
5670 5666 5662 5658 5655 5655 5658 5660 5663 5663 5665 5671 5677 5681 5685 5694 5700 5705 5708 5712 5721 5730 5736 5733 5736 5747 5744 5746 5744 5727 5726 5764 5762 5758 5758 5761 5763 5763 5763 5760 5752 5745 5746
5661 5656 5653 5648 5645 5647 5651 5654 5655 5658 5660 5664 5669 5676 5681 5686 5691 5695 5697 5706 5712 5717 5725 5725 5716 5726 5736 5738 5751 5745 5738 5744 5754 5757 5755 5756 5755 5754 5751 5753 5751 5745 5740
5649 5646 5645 5640 5639 5643 5645 5648 5650 5653 5657 5660 5663 5669 5677 5681 5683 5686 5691 5697 5707 5712 5715 5724 5723 5725 5723 5738 5739 5736 5733 5745 5754 5749 5749 5750 5751 5748 5747 5743 5743 5741 5741
5639 5638 5636 5636 5636 5636 5638 5642 5644 5649 5651 5654 5656 5661 5667 5673 5679 5680 5685 5691 5695 5703 5710 5717 5715 5713 5721 5711 5720 5735 5744 5745 5744 5738 5744 5747 5748 5746 5742 5736 5734 5732 5731
5629 5628 5627 5628 5629 5631 5635 5635 5639 5641 5643 5647 5653 5655 5660 5663 5667 5671 5675 5683 5687 5690 5694 5699 5704 5708 5716 5722 5723 5728 5732 5737 5738 5737 5739 5739 5738 5735 5732 5728 5721 5719 5718
5620 5619 5619 5622 5622 5625 5630 5632 5635 5637 5637 5642 5647 5648 5651 5652 5654 5657 5660 5671 5680 5685 5686 5692 5699 5702 5704 5709 5709 5716 5723 5727 5728 5728 5729 5728 5727 5725 5721 5718 5715 5709 5707
5612 5611 5613 5615 5615 5620 5624 5630 5629 5631 5633 5633 5634 5639 5646 5645 5647 5649 5655 5661 5671 5673 5679 5682 5686 5691 5696 5698 5701 5705 5709 5712 5714 5716 5717 5717 5716 5712 5709 5707 5705 5702 5697
5606 5606 5608 5609 5613 5617 5620 5625 5635 5637 5634 5635 5636 5638 5639 5647 5645 5644 5644 5651 5657 5667 5672 5672 5673 5677 5680 5684 5688 5693 5695 5698 5702 5705 5707 5706 5704 5702 5698 5695 5692 5690 5688
5605 5605 5604 5606 5610 5615 5622 5628 5635 5636 5639 5642 5637 5637 5638 5639 5640 5642 5643 5641 5651 5656 5659 5662 5663 5664 5667 5671 5676 5680 5683 5686 5689 5692 5692 5693 5691 5688 5687 5686 5684 5682 5680
5605 5605 5605 5608 5611 5617 5622 5630 5636 5637 5638 5641 5640 5638 5638 5636 5636 5636 5637 5646 5651 5653 5652 5651 5651 5655 5659 5660 5663 5670 5674 5674 5674 5676 5677 5678 5678 5678 5676 5676 5673 5671 5671
5605 5608 5607 5609 5612 5620 5624 5627 5632 5639 5638 5641 5641 5643 5640 5639 5641 5642 5644 5647 5649 5646 5642 5645 5646 5648 5648 5649 5653 5656 5657 5659 5658 5661 5663 5663 5666 5667 5666 5663 5662 5661 5661
5603 5609 5611 5613 5616 5621 5626 5625 5630 5637 5637 5638 5642 5643 5642 5639 5638 5639 5641 5643 5645 5645 5646 5647 5645 5644 5645 5646 5647 5646 5648 5648 5648 5647 5648 5649 5649 5649 5652 5652 5650 5650 5650
5599 5604 5610 5616 5621 5624 5628 5626 5632 5635 5635 5635 5638 5640 5633 5636 5635 5638 5638 5641 5643 5641 5642 5644 5643 5643 5643 5641 5641 5641 5640 5640 5638 5639 5639 5637 5638 5640 5641 5642 5641 5640 5641
5596 5599 5603 5611 5619 5620 5621 5626 5627 5631 5632 5634 5635 5635 5632 5632 5634 5636 5639 5640 5640 5640 5639 5639 5639 5638 5638 5635 5634 5636 5636 5636 5637 5636 5634 5632 5633 5634 5634 5635 5635 5633 5633
5590 5593 5597 5606 5609 5610 5613 5617 5620 5621 5623 5628 5630 5632 5632 5632 5634 5635 5637 5639 5636 5636 5633 5634 5635 5637 5634 5633 5634 5634 5633 5631 5632 5631 5632 5630 5628 5627 5627 5627 5628 5630 5629
5581 5584 5588 5591 5593 5594 5602 5606 5606 5608 5612 5616 5620 5619 5622 5623 5627 5631 5631 5634 5633 5633 5632 5630 5632 5633 5632 5631 5630 5630 5627 5628 5624 5623 5625 5624 5623 5622 5621 5621 5621 5622 5623
5565 5570 5570 5578 5574 5577 5584 5585 5586 5591 5591 5593 5593 5597 5603 5601 5606 5614 5618 5614 5615 5616 5616 5616 5616 5620 5623 5623 5624 5621 5620 5620 5619 5619 5618 5617 5615 5612 5612 5614 5616 5616 5618